GW0320 Weather Reports


time (UTC)temp
C
wind
direction
speed
KPH
gust
KPH
rain 1hr
cm
rain 24hr
cm
rain mn
cm
humidity
%
barometer
mb
20260502152115 15 15 1.6 1.6 0.00 0.00 0.00 42 1022.4
20260502151612 13 155 0.0 0.0 0.00 0.00 0.00 43 1022.5
20260502151110 15 358 3.2 3.2 0.00 0.00 0.00 40 1022.5
20260502150607 14 342 3.2 4.8 0.00 0.00 0.00 44 1022.2
20260502150103 13 354 3.2 3.2 0.00 0.00 0.00 48 1022.4
20260502130452 6 324 0.0 0.0 0.00 0.00 0.00 68 1022.0
20260502123434 5 260 0.0 0.0 0.00 0.00 0.00 75 1021.8
20260502122932 4 251 0.0 0.0 0.00 0.00 0.00 76 1021.8
20260502122427 4 247 0.0 0.0 0.00 0.00 0.00 77 1021.7
20260502121926 3 246 0.0 0.0 0.00 0.00 0.00 79 1021.5
20260502121422 3 240 0.0 0.0 0.00 0.00 0.00 80 1021.7
20260502120920 3 241 0.0 0.0 0.00 0.00 0.00 81 1021.6
20260502120416 2 241 0.0 0.0 0.00 0.00 0.00 83 1021.4
20260502115914 2 240 0.0 0.0 0.00 0.00 0.00 83 1021.5
20260502115411 2 241 0.0 0.0 0.00 0.00 0.00 83 1021.4
20260502114906 2 241 0.0 0.0 0.00 0.00 0.00 82 1021.2
20260502114404 2 241 0.0 0.0 0.00 0.00 0.00 82 1021.3
20260502113901 2 241 0.0 0.0 0.00 0.00 0.00 82 1021.4
20260502113358 2 241 0.0 0.0 0.00 0.00 0.00 83 1021.2
20260502112856 2 241 0.0 0.0 0.00 0.00 0.00 83 1021.3
20260502112354 2 238 0.0 1.6 0.00 0.00 0.00 82 1021.2
20260502111851 2 247 0.0 0.0 0.00 0.00 0.00 81 1021.2
20260502111348 2 247 0.0 0.0 0.00 0.00 0.00 80 1021.1
20260502110846 2 247 0.0 0.0 0.00 0.00 0.00 80 1021.1
20260502110344 2 246 0.0 0.0 0.00 0.00 0.00 80 1021.2
20260502105841 2 247 0.0 0.0 0.00 0.00 0.00 80 1021.0
20260502105338 2 241 0.0 0.0 0.00 0.00 0.00 79 1021.0
20260502104836 2 240 0.0 0.0 0.00 0.00 0.00 80 1020.9
20260502104333 2 242 0.0 0.0 0.00 0.00 0.00 79 1021.0
20260502103830 3 242 0.0 0.0 0.00 0.00 0.00 80 1021.1
20260502103327 3 243 0.0 1.6 0.00 0.00 0.00 79 1020.8
20260502102824 3 247 0.0 0.0 0.00 0.00 0.00 80 1020.9
20260502102320 3 247 0.0 1.6 0.00 0.00 0.00 80 1020.9
20260502101818 3 246 0.0 0.0 0.00 0.00 0.00 79 1020.8
20260502101316 3 240 0.0 0.0 0.00 0.00 0.00 79 1020.7
20260502100814 3 240 0.0 0.0 0.00 0.00 0.00 79 1020.6
20260502100313 3 243 0.0 0.0 0.00 0.00 0.00 78 1020.7
20260502091247 3 231 0.0 0.0 0.00 0.00 0.00 77 1020.5
20260502090744 4 228 0.0 0.0 0.00 0.00 0.00 77 1020.6
20260502090241 4 238 0.0 0.0 0.00 0.00 0.00 75 1020.5
20260502071142 5 246 0.0 0.0 0.00 0.00 0.00 71 1020.2
20260502070640 5 246 0.0 0.0 0.00 0.00 0.00 71 1020.3
20260502070137 5 243 0.0 1.6 0.00 0.00 0.00 73 1020.3
20260502065635 5 152 0.0 0.0 0.00 0.00 0.00 74 1020.4
20260502065133 5 150 0.0 0.0 0.00 0.00 0.00 74 1020.4
20260502064632 5 149 0.0 0.0 0.00 0.00 0.00 75 1020.2
20260502064128 5 143 0.0 0.0 0.00 0.00 0.00 75 1020.2
20260502063626 5 143 0.0 0.0 0.00 0.00 0.00 76 1020.3
20260502063123 5 144 0.0 0.0 0.00 0.00 0.00 78 1020.6
20260502062620 5 139 0.0 0.0 0.00 0.00 0.00 80 1020.4
20260502062118 5 142 0.0 0.0 0.00 0.00 0.00 82 1020.6
20260502061616 5 142 0.0 0.0 0.00 0.00 0.00 83 1020.3
20260502061114 5 142 0.0 0.0 0.00 0.00 0.00 83 1020.2
20260502060613 5 142 0.0 0.0 0.00 0.00 0.00 82 1020.4
20260502060110 5 142 0.0 0.0 0.00 0.00 0.00 79 1020.6
20260502055608 5 142 0.0 0.0 0.00 0.00 0.00 80 1020.4
20260502055106 5 142 0.0 0.0 0.00 0.00 0.00 80 1020.6
20260502054605 5 142 0.0 0.0 0.00 0.00 0.00 79 1020.4
20260502054101 5 142 0.0 0.0 0.00 0.00 0.00 79 1020.1
20260502053558 6 142 0.0 0.0 0.00 0.00 0.00 79 1020.2
20260502053056 6 142 0.0 0.0 0.00 0.00 0.00 77 1020.1
20260502052554 6 142 0.0 0.0 0.00 0.00 0.00 77 1020.4
20260502052052 6 142 0.0 0.0 0.00 0.00 0.00 76 1020.4
20260502051550 6 141 0.0 0.0 0.00 0.00 0.00 75 1020.3
20260502051048 6 140 0.0 0.0 0.00 0.00 0.00 74 1020.1
20260502050543 6 136 0.0 0.0 0.00 0.00 0.00 75 1020.3
20260502050040 6 140 0.0 0.0 0.00 0.00 0.00 76 1020.2
20260502045537 6 140 0.0 0.0 0.00 0.00 0.00 75 1020.1
20260502045034 6 132 0.0 0.0 0.00 0.00 0.00 75 1019.9
20260502044531 7 133 0.0 0.0 0.00 0.00 0.00 73 1020.2
20260502044027 7 133 0.0 0.0 0.00 0.00 0.00 70 1019.9
20260502043525 7 132 0.0 0.0 0.00 0.00 0.00 68 1020.0
20260502043021 8 114 0.0 0.0 0.00 0.00 0.00 64 1020.2
20260502042516 8 125 0.0 0.0 0.00 0.00 0.00 66 1020.3
20260502042014 8 106 0.0 0.0 0.00 0.00 0.00 64 1020.0
20260502041512 8 103 0.0 1.6 0.00 0.00 0.00 65 1020.0
20260502041008 8 75 0.0 0.0 0.00 0.00 0.00 63 1020.2
20260502040505 8 69 0.0 0.0 0.00 0.00 0.00 61 1020.1
20260502040002 8 107 0.0 1.6 0.00 0.00 0.00 62 1020.2
20260502035457 8 112 0.0 0.0 0.00 0.00 0.00 65 1020.2
20260502034955 8 78 0.0 1.6 0.00 0.00 0.00 66 1020.2
20260502034453 8 140 0.0 0.0 0.00 0.00 0.00 68 1019.9
20260502033952 7 141 0.0 0.0 0.00 0.00 0.00 71 1019.8
20260502033449 7 141 0.0 0.0 0.00 0.00 0.00 74 1020.0
20260502032946 7 140 0.0 0.0 0.00 0.00 0.00 78 1019.8
20260502032442 7 141 0.0 0.0 0.00 0.00 0.00 76 1019.8
20260502031939 8 141 0.0 0.0 0.00 0.00 0.00 73 1019.7
20260502031438 8 141 0.0 0.0 0.00 0.00 0.00 72 1019.4
20260502030935 8 141 0.0 0.0 0.00 0.00 0.00 72 1019.7
20260502030434 8 140 0.0 0.0 0.00 0.00 0.00 74 1019.7
20260502025931 8 140 0.0 0.0 0.00 0.00 0.00 72 1019.3
20260502025428 8 140 0.0 0.0 0.00 0.00 0.00 73 1019.3
20260502024926 8 140 0.0 0.0 0.00 0.00 0.00 74 1019.3
20260502024424 8 140 0.0 0.0 0.00 0.00 0.00 74 1019.2
20260502023922 8 140 0.0 0.0 0.00 0.00 0.00 74 1019.2
20260502023419 9 140 0.0 0.0 0.00 0.00 0.00 75 1018.9
20260502022916 8 140 0.0 0.0 0.00 0.00 0.00 68 1018.8
20260502022412 8 140 0.0 0.0 0.00 0.00 0.00 68 1018.7
20260502021909 9 140 0.0 0.0 0.00 0.00 0.00 67 1018.6
20260502021407 9 140 0.0 0.0 0.00 0.00 0.00 67 1018.5
20260502020904 10 140 0.0 0.0 0.00 0.00 0.00 66 1018.5
20260502020402 10 140 0.0 0.0 0.00 0.00 0.00 64 1018.4
20260502015858 10 139 0.0 0.0 0.00 0.00 0.00 65 1018.2
20260502015355 10 139 0.0 0.0 0.00 0.00 0.00 63 1018.0
20260502014852 10 139 0.0 0.0 0.00 0.00 0.00 64 1018.0
20260502014349 10 139 0.0 0.0 0.00 0.00 0.00 62 1018.2
20260502013845 11 139 0.0 0.0 0.00 0.00 0.00 61 1018.2
20260502013341 11 139 0.0 0.0 0.00 0.00 0.00 61 1018.0
20260502012838 11 139 0.0 0.0 0.00 0.00 0.00 60 1017.8
20260502012336 11 139 0.0 0.0 0.00 0.00 0.00 58 1017.9
20260502011833 12 139 0.0 0.0 0.00 0.00 0.00 60 1017.7
20260502011329 12 138 0.0 0.0 0.00 0.00 0.00 56 1017.7
20260502010826 13 128 0.0 0.0 0.00 0.00 0.00 54 1017.4
20260502010323 13 89 0.0 0.0 0.00 0.00 0.00 53 1017.5
20260502005820 13 61 0.0 1.6 0.00 0.00 0.00 51 1017.5
20260502005318 13 205 0.0 0.0 0.00 0.00 0.00 57 1017.4
20260502004815 14 213 0.0 0.0 0.00 0.00 0.00 52 1017.4
20260502004310 14 353 0.0 0.0 0.00 0.00 0.00 48 1017.4
20260502003809 15 4 0.0 0.0 0.00 0.00 0.00 47 1017.1
20260502003305 14 116 0.0 1.6 0.00 0.00 0.00 50 1017.2
20260502002801 15 266 0.0 0.0 0.00 0.00 0.00 49 1017.2
20260502002259 15 196 0.0 0.0 0.00 0.00 0.00 53 1017.1
20260502001756 15 297 0.0 0.0 0.00 0.00 0.00 49 1017.1
20260502001254 15 5 0.0 0.0 0.00 0.00 0.00 47 1017.0
20260502000751 15 20 1.6 1.6 0.00 0.00 0.00 46 1017.0
20260502000250 15 11 1.6 1.6 0.00 0.00 0.00 43 1017.0
20260501235744 16 78 0.0 1.6 0.00 0.00 0.00 43 1016.8
20260501235241 16 15 3.2 8.0 0.00 0.00 0.00 43 1016.9
20260501234736 16 52 1.6 3.2 0.00 0.00 0.00 44 1016.9
20260501234234 16 268 0.0 0.0 0.00 0.00 0.00 44 1016.9
20260501233732 16 318 0.0 0.0 0.00 0.00 0.00 42 1016.9
20260501233229 16 8 1.6 1.6 0.00 0.00 0.00 41 1016.8
20260501232724 16 15 1.6 1.6 0.00 0.00 0.00 40 1017.0
20260501232222 16 336 1.6 1.6 0.00 0.00 0.00 40 1017.0
20260501231719 17 16 0.0 0.0 0.00 0.00 0.00 42 1016.8
20260501231218 17 189 1.6 3.2 0.00 0.00 0.00 43 1016.8
20260501230715 17 337 0.0 1.6 0.00 0.00 0.00 42 1016.8
20260501230214 17 318 1.6 1.6 0.00 0.00 0.00 41 1016.8
20260501225711 17 39 0.0 0.0 0.00 0.00 0.00 40 1016.8
20260501225208 17 2 4.8 4.8 0.00 0.00 0.00 39 1016.5
20260501224704 17 356 1.6 1.6 0.00 0.00 0.00 39 1016.7
20260501224202 17 28 3.2 4.8 0.00 0.00 0.00 39 1016.8
20260501223658 17 54 1.6 3.2 0.00 0.00 0.00 39 1016.5
20260501223154 17 274 0.0 1.6 0.00 0.00 0.00 41 1016.8
20260501222650 17 348 1.6 1.6 0.00 0.00 0.00 41 1016.8
20260501222148 16 251 0.0 0.0 0.00 0.00 0.00 41 1016.9
20260501221644 16 352 0.0 1.6 0.00 0.00 0.00 41 1016.8
20260501221142 17 63 1.6 1.6 0.00 0.00 0.00 39 1016.8
20260501220639 17 315 0.0 0.0 0.00 0.00 0.00 41 1016.8
20260501220136 17 335 1.6 1.6 0.00 0.00 0.00 38 1016.7
20260501215633 18 165 0.0 1.6 0.00 0.00 0.00 37 1017.0
20260501215128 18 325 1.6 1.6 0.00 0.00 0.00 37 1016.9
20260501214623 18 349 1.6 1.6 0.00 0.00 0.00 39 1017.1
20260501214119 18 208 1.6 1.6 0.00 0.00 0.00 40 1016.9
20260501213616 18 336 1.6 4.8 0.00 0.00 0.00 40 1017.2
20260501213112 18 343 1.6 1.6 0.00 0.00 0.00 38 1017.0
20260501212609 18 112 1.6 1.6 0.00 0.00 0.00 45 1017.2
20260501212106 18 55 0.0 1.6 0.00 0.00 0.00 41 1017.4
20260501211602 18 335 1.6 1.6 0.00 0.00 0.00 40 1017.2
20260501211100 18 46 0.0 1.6 0.00 0.00 0.00 41 1017.5
20260501210556 18 57 3.2 4.8 0.00 0.00 0.00 40 1017.6
20260501210054 19 296 4.8 4.8 0.00 0.00 0.00 42 1017.4
20260501205550 18 254 4.8 4.8 0.00 0.00 0.00 39 1017.6
20260501205048 17 271 0.0 0.0 0.00 0.00 0.00 40 1017.8
20260501204544 17 213 0.0 1.6 0.00 0.00 0.00 49 1017.9
20260501204040 16 351 0.0 1.6 0.00 0.00 0.00 44 1018.1
20260501203536 17 13 1.6 3.2 0.00 0.00 0.00 44 1018.1
20260501203034 18 352 1.6 1.6 0.00 0.00 0.00 40 1018.3
20260501202531 17 34 1.6 1.6 0.00 0.00 0.00 41 1018.2
20260501202027 17 329 1.6 1.6 0.00 0.00 0.00 42 1018.1
20260501201525 18 348 4.8 4.8 0.00 0.00 0.00 40 1018.1
20260501201021 19 46 1.6 1.6 0.00 0.00 0.00 40 1018.3
20260501200518 18 6 3.2 3.2 0.00 0.00 0.00 37 1018.2
20260501200016 18 82 1.6 1.6 0.00 0.00 0.00 39 1018.1
20260501195513 18 25 4.8 4.8 0.00 0.00 0.00 37 1018.4
20260501195008 18 63 1.6 3.2 0.00 0.00 0.00 37 1018.3
20260501194504 17 111 3.2 3.2 0.00 0.00 0.00 43 1018.3
20260501194000 18 319 0.0 1.6 0.00 0.00 0.00 40 1018.3
20260501193458 18 340 1.6 1.6 0.00 0.00 0.00 41 1018.3
20260501192955 19 240 3.2 3.2 0.00 0.00 0.00 38 1018.4
20260501192453 20 237 3.2 4.8 0.00 0.00 0.00 37 1018.4
20260501191950 19 344 1.6 1.6 0.00 0.00 0.00 38 1018.2
20260501191447 20 294 0.0 1.6 0.00 0.00 0.00 36 1018.2
20260501190944 20 225 1.6 1.6 0.00 0.00 0.00 37 1018.1
20260501190440 18 344 1.6 1.6 0.00 0.00 0.00 38 1018.4
20260501185935 18 301 1.6 3.2 0.00 0.00 0.00 37 1018.6
20260501185431 18 306 0.0 0.0 0.00 0.00 0.00 40 1018.3
20260501184927 18 24 3.2 4.8 0.00 0.00 0.00 36 1018.3
20260501184424 18 136 1.6 1.6 0.00 0.00 0.00 39 1018.5
20260501183918 18 269 0.0 1.6 0.00 0.00 0.00 39 1018.5
20260501183416 17 341 1.6 3.2 0.00 0.00 0.00 41 1018.5
20260501182913 17 335 0.0 0.0 0.00 0.00 0.00 43 1018.7
20260501182409 17 320 1.6 3.2 0.00 0.00 0.00 42 1018.6
20260501181906 17 148 1.6 3.2 0.00 0.00 0.00 39 1018.8
20260501181403 18 180 0.0 1.6 0.00 0.00 0.00 45 1018.8
20260501180901 19 175 1.6 3.2 0.00 0.00 0.00 38 1018.5
20260501180357 18 247 4.8 4.8 0.00 0.00 0.00 37 1018.8
20260501175854 17 253 3.2 4.8 0.00 0.00 0.00 39 1018.7
20260501175350 18 283 0.0 1.6 0.00 0.00 0.00 41 1019.0
20260501174847 18 293 1.6 1.6 0.00 0.00 0.00 43 1018.8
20260501174345 19 238 4.8 8.0 0.00 0.00 0.00 40 1019.1
20260501173842 18 285 3.2 3.2 0.00 0.00 0.00 42 1019.1
20260501173340 18 49 3.2 3.2 0.00 0.00 0.00 39 1019.2
20260501172835 18 162 1.6 3.2 0.00 0.00 0.00 41 1018.9
20260501172330 18 214 3.2 8.0 0.00 0.00 0.00 38 1019.3
20260501171826 18 237 3.2 3.2 0.00 0.00 0.00 39 1019.4
20260501171323 18 168 1.6 3.2 0.00 0.00 0.00 44 1019.5
20260501170820 18 331 4.8 8.0 0.00 0.00 0.00 39 1019.2
20260501170317 18 289 1.6 1.6 0.00 0.00 0.00 38 1019.3
20260501165814 18 286 3.2 3.2 0.00 0.00 0.00 40 1019.3
20260501165312 18 356 3.2 3.2 0.00 0.00 0.00 41 1019.8
20260501164810 17 273 3.2 4.8 0.00 0.00 0.00 39 1019.7
20260501164307 17 1 1.6 1.6 0.00 0.00 0.00 41 1019.3
20260501163803 17 325 1.6 3.2 0.00 0.00 0.00 41 1019.4
20260501163300 17 66 4.8 8.0 0.00 0.00 0.00 42 1019.3
20260501162756 17 223 1.6 1.6 0.00 0.00 0.00 44 1019.7
20260501162253 16 243 3.2 8.0 0.00 0.00 0.00 44 1019.5
20260501161750 17 234 3.2 3.2 0.00 0.00 0.00 45 1019.5
20260501161247 16 273 0.0 0.0 0.00 0.00 0.00 45 1019.4
20260501160743 16 306 1.6 1.6 0.00 0.00 0.00 46 1019.7
20260501160241 16 186 0.0 0.0 0.00 0.00 0.00 48 1019.7
20260501155738 16 172 3.2 4.8 0.00 0.00 0.00 45 1019.4
20260501155235 17 320 3.2 3.2 0.00 0.00 0.00 42 1019.3
20260501154731 16 210 4.8 4.8 0.00 0.00 0.00 42 1019.7
20260501154228 16 233 4.8 8.0 0.00 0.00 0.00 44 1019.3